This demonstration page uses our WeatherBlox Daily Observations layout. Learn more.

Left ArrowRight Arrow

44.89941, -97.11507

Hourly Observations for February 9, 2021

Temp ( °F °C ) Dew Point ( °F °C ) Humidity (%) Winds ( mph kmh ) Pressure ( in mb ) Visibility ( mi km ) Precip ( " mm )
12:00 am 00:00 Cloudy with Light Snow 0 -17.8 -4 -20 83 83 SW 12 19 30.45 1031 2 2 0.00 0.00
12:03 am 00:03 Cloudy with Light Snow 0 -17.8 -4 -20 83 83 SW 12 19 30.45 1031 1 2 0.00 0.00
12:23 am 00:23 Cloudy with Light Snow 1 -17.2 -3 -19.4 83 83 SW 13 20 30.45 1031 2 3 0.00 0.00
12:30 am 00:30 Cloudy with Light Snow 1 -17.2 -3 -19.4 83 83 SW 9 15 30.45 1031 3 4 0.00 0.00
12:37 am 00:37 Cloudy with Light Snow 1 -17.2 -3 -19.4 83 83 SW 13 20 30.45 1031 5 8 0.00 0.00
12:53 am 00:53 Cloudy 1 -17.2 -3 -19.4 83 83 WSW 13 20 30.38 1029 8 13 0.00 0.00
1:53 am 01:53 Cloudy 1 -17.2 -3 -19.4 83 83 WSW 13 20 30.38 1029 10 16 0.00 0.00
2:53 am 02:53 Cloudy with Mist and Fog 1 -17.2 -3 -19.4 83 83 WSW 12 19 30.38 1029 6 10 0.00 0.00
3:53 am 03:53 Cloudy 1 -17.2 -3 -19.4 83 83 WSW 12 19 30.38 1029 8 13 0.00 0.00
4:53 am 04:53 Cloudy with Mist and Fog 1 -17.2 -3 -19.4 83 83 W 10 17 30.37 1029 6 10 0.00 0.00
5:04 am 05:04 Cloudy 1 -17.2 -4 -20 79 79 W 14 22 30.45 1031 7 11 0.00 0.00
5:31 am 05:31 Partly Cloudy -1 -18.3 -8 -22.2 72 72 WNW 9 15 30.47 1032 10 16 0.00 0.00
5:53 am 05:53 Mostly Clear -1 -18.3 -8 -22.2 72 72 WNW 12 19 30.40 1029 10 16 0.00 0.00
6:53 am 06:53 Clear -4 -20 -13 -25 65 65 WNW 8 13 30.40 1029 10 16 0.00 0.00
7:53 am 07:53 Sunny -6 -21.1 -15 -26.1 64 64 W 9 15 30.42 1030 10 16 0.00 0.00
8:53 am 08:53 Sunny -6 -21.1 -16 -26.7 61 61 W 10 17 30.42 1030 10 16 0.00 0.00
9:53 am 09:53 Sunny -5 -20.6 -16 -26.7 58 58 W 15 24 30.42 1030 10 16 0.00 0.00
10:53 am 10:53 Sunny -4 -20 -16 -26.7 55 55 W 14 22 30.42 1030 10 16 0.00 0.00
11:53 am 11:53 Sunny -3 -19.4 -14 -25.6 58 58 W 14 22 30.42 1030 10 16 0.00 0.00
12:53 pm 12:53 Sunny -2 -18.9 -13 -25 59 59 W 15 24 30.40 1030 10 16 0.00 0.00
1:53 pm 13:53 Sunny -1 -18.3 -12 -24.4 59 59 W 16 26 30.39 1029 10 16 0.00 0.00
2:53 pm 14:53 Sunny 0 -17.8 -11 -23.9 59 59 W 17 28 30.39 1029 10 16 0.00 0.00
3:53 pm 15:53 Sunny 1 -17.2 -11 -23.9 56 56 W 15 24 30.40 1029 10 16 0.00 0.00
4:53 pm 16:53 Sunny 1 -17.2 -10 -23.3 59 59 W 16 26 30.38 1029 10 16 0.00 0.00
5:53 pm 17:53 Mostly Clear 0 -17.8 -10 -23.3 62 62 W 10 17 30.39 1029 10 16 0.00 0.00
6:53 pm 18:53 Partly Cloudy -4 -20 -11 -23.9 71 71 SW 6 9 30.41 1030 10 16 0.00 0.00
7:53 pm 19:53 Cloudy 1 -17.2 -9 -22.8 62 62 W 8 13 30.41 1030 10 16 0.00 0.00
8:53 pm 20:53 Cloudy 1 -17.2 -8 -22.2 65 65 Calm 30.41 1030 10 16 0.00 0.00
9:53 pm 21:53 Cloudy 2 -16.7 -9 -22.8 59 59 W 6 9 30.40 1030 10 16 0.00 0.00
10:53 pm 22:53 Mostly Clear 1 -17.2 -10 -23.3 59 59 W 9 15 30.43 1031 10 16 0.00 0.00
11:53 pm 23:53 Cloudy 1 -17.2 -9 -22.8 62 62 WSW 8 13 30.43 1030 10 16 0.00 0.00

Powered by AerisWeather